Temp_Advection
nan nan nan nan nan nan nan nan nan nan nan nan nan nan nan nan nan nan nan nan nan nan nan nan nan nan nan nan nan nan nan nan nan nan nan nan nan nan nan nan nan nan nan nan nan
nan -0 -0 0 -0 -0 -0 -0 0 0 0 -0 0 0 0 0 0 -1 -1 -0 0 0 -0 -1 -0 -0 -1 -1 -1 -0 -0 -2 -1 -0 0 0 0 0 -0 -0 -0 -0 0 0 nan
nan 0 -0 0 -0 -0 -0 -0 -0 0 0 0 0 0 0 0 -0 -1 -1 -0 0 0 -0 -0 -0 -1 -1 -1 -1 -0 -1 -1 -0 0 0 -0 -0 -0 -0 -0 -1 -0 -0 0 nan
nan 0 -0 0 0 -0 -0 -0 -0 0 0 0 0 0 0 -0 -0 0 0 0 1 1 -0 -0 -0 -1 -1 -1 -1 -0 -1 -0 -0 0 0 -0 -0 -0 -0 -0 0 -0 -0 0 nan
nan 0 -0 0 0 0 -0 -0 0 0 0 0 -0 0 0 -0 -0 -0 -0 -0 0 -0 -1 -1 -1 -1 -1 -1 -0 -1 -1 0 0 0 0 0 -0 -0 -0 -1 -0 -0 0 0 nan
nan 0 0 0 0 0 -0 -0 -0 -0 0 0 0 0 -0 -1 -0 0 0 0 -0 -0 -0 -0 -0 -1 -1 -1 -1 -0 -0 -0 -0 0 -0 -0 -0 -0 -0 -1 -1 -0 0 0 nan
nan 0 0 0 0 0 -0 -0 -0 -0 0 0 0 0 -0 -1 -0 0 0 -0 -0 -0 -0 -0 -1 -0 0 -0 -1 -0 -0 0 -0 -0 -0 0 -0 -1 -1 -1 -0 -0 0 1 nan
nan 0 0 0 0 0 -0 -0 -0 -0 0 0 0 0 -1 -0 0 -0 -0 -0 -0 -0 -0 -0 0 1 -0 -1 -2 0 1 -0 -1 -1 0 0 -1 -1 0 0 0 0 0 0 nan
nan 0 0 0 0 0 0 -0 -0 0 0 0 0 -0 -1 0 -0 -0 -0 -0 -0 -0 -0 -0 0 1 0 -0 -1 -0 0 -1 -1 -1 0 0 -1 -1 0 0 -0 -0 0 0 nan
nan -0 0 0 0 0 0 -0 -0 0 0 -0 -0 -0 -1 -0 -0 0 -0 -0 -0 -0 -0 -0 0 0 -0 -0 -1 -1 -2 -1 -2 -1 0 0 -1 -1 -0 -0 -0 -0 0 0 nan
nan 0 0 0 0 0 0 -0 0 0 -0 -0 -0 -0 0 0 0 -0 -0 -0 -0 -0 -0 0 0 -1 -2 -2 -2 -1 -1 -1 -2 -0 1 0 -1 -1 -0 -0 0 -0 0 0 nan
nan -0 0 0 0 1 0 -0 -0 -0 0 -0 -0 0 0 0 -0 -0 -0 -0 -1 -1 -0 1 -1 -3 -1 0 0 -2 -1 -1 0 1 0 -0 -1 -1 -0 0 -0 0 1 1 nan
nan 0 0 0 0 0 -0 -0 0 0 0 -0 -0 -0 1 0 -0 0 -0 -1 -1 0 0 0 -2 -0 0 1 -1 -2 -2 -1 0 1 0 0 -0 -1 -1 0 1 0 0 1 nan
nan 0 0 0 -0 -0 0 -0 0 1 -0 -0 0 0 1 0 -1 -1 -1 -0 -0 -0 1 -0 1 -0 -0 1 -1 -1 -2 0 0 0 0 0 -0 -1 -0 0 0 -0 1 1 nan
nan 0 0 0 -0 0 0 0 0 0 -1 -0 -0 -0 -0 -0 -0 -0 -0 -0 -0 1 0 -0 0 -2 -1 -1 -1 -1 -1 1 0 0 -0 -0 -0 -1 0 -0 -1 0 1 1 nan
nan 0 0 0 0 0 0 0 0 -0 -0 0 -0 -0 -0 -1 -1 -0 0 0 0 1 0 -1 -0 -1 -0 -0 0 -1 2 1 0 0 -0 -1 -1 -1 0 0 -0 0 1 0 nan
nan 0 0 -0 0 0 0 0 -0 -1 -0 0 0 0 0 -0 -1 -0 0 1 0 0 -0 0 -0 -1 0 0 0 -0 1 0 0 -0 -1 0 0 -0 -0 0 0 0 0 0 nan
nan 0 0 0 0 0 0 0 -1 -0 0 -0 -0 -0 -0 -1 -1 0 0 -0 -1 -0 -0 -0 -0 -1 -0 0 -0 -0 -0 -1 -0 -1 -1 0 -0 -0 -0 -0 0 0 0 -0 nan
nan 0 0 0 0 0 0 -0 -0 0 0 -0 -0 -0 -0 -1 0 1 0 -1 -1 -1 -0 0 -0 -0 0 -0 0 -0 -1 0 0 0 0 -0 -0 0 0 -0 0 0 -0 -0 nan
nan 0 0 0 0 0 -0 -0 -0 0 -0 0 -1 -1 -1 -0 0 0 -1 -1 -1 -0 0 -0 -0 -0 0 -0 0 -1 0 0 -0 0 0 -0 -0 -0 -0 -0 -0 0 -0 -0 nan
nan 0 -0 0 0 0 -0 -0 -0 -0 -0 -0 -1 -1 -0 -1 -0 -1 -1 -0 -1 -0 0 -0 -0 -0 -0 -0 -1 -0 0 -0 -0 -0 -0 0 0 -0 -0 -0 0 0 0 -0 nan
nan -0 0 0 -0 -0 -0 -0 -0 0 0 -1 -2 -1 -0 -1 -0 -1 -1 -1 -0 -0 -0 -1 -1 -0 1 1 -0 -0 -1 -1 0 0 -0 -0 0 0 -0 -0 0 0 0 0 nan
nan -0 0 0 -0 -0 -0 -0 -0 -0 -0 -1 -1 -1 -0 0 -0 -0 -1 -0 0 -0 -0 -1 -0 -0 0 0 -0 0 -1 -0 -0 -0 0 -0 0 0 -0 -0 0 0 0 0 nan
nan -0 -0 -0 -0 -0 -0 -0 -0 -1 -1 -1 -1 -0 0 -0 0 -0 -0 0 -0 -0 -1 -0 -1 -1 -1 -1 -1 -0 -1 -0 0 -0 -0 -0 0 -0 -0 -0 -0 0 0 0 nan
nan -0 -0 -0 -0 -0 -0 -0 -0 -0 -1 -0 -0 -0 0 -0 -0 0 -1 0 -0 -0 -0 -0 -1 -0 -0 -0 -1 -1 -1 -0 -1 -1 -0 -0 -0 -1 -0 -0 -0 -0 -0 -0 nan
nan 0 -0 0 -1 -0 -0 -0 -0 -1 -1 0 -1 -1 -0 -0 -0 -1 -1 -0 -0 -0 -0 -0 -0 -0 0 -0 -0 0 -0 -0 -0 -1 -1 -0 -1 -0 -0 -0 -0 -0 -0 -0 nan
nan nan nan nan nan nan nan nan nan nan nan nan nan nan nan nan nan nan nan nan nan nan nan nan nan nan nan nan nan nan nan nan nan nan nan nan nan nan nan nan nan nan nan nan nan
Wind_Speed
10 11 12 12 11 10 11 14 15 16 15 18 18 16 14 14 14 13 13 10 7 12 12 8 12 16 16 15 14 10 11 14 19 16 12 3 8 6 8 14 13 10 9 4 6
9 10 11 11 10 10 10 12 15 17 16 16 14 15 15 14 13 17 18 16 14 10 8 8 9 17 23 20 18 15 13 21 16 12 12 11 8 11 11 14 13 13 9 7 7
10 10 10 9 10 10 10 10 12 14 15 18 18 15 15 11 13 19 18 21 17 13 10 10 9 13 26 26 27 21 20 18 21 13 15 14 14 18 12 15 16 10 11 13 14
10 10 9 8 8 9 9 10 9 11 10 11 13 12 13 10 9 0 14 18 23 19 13 13 13 12 12 23 28 22 25 28 24 15 13 15 17 19 19 21 19 18 19 18 15
12 10 9 9 9 9 9 9 8 8 11 9 10 12 11 14 20 5 2 4 1 14 20 19 20 17 18 19 26 23 23 26 25 21 18 18 21 20 26 24 23 21 19 19 17
14 11 10 9 10 10 10 8 8 7 8 11 10 12 13 17 15 20 14 9 4 6 17 20 15 21 18 25 21 14 29 27 22 22 22 18 22 22 24 23 23 21 21 18 16
15 13 12 10 11 10 11 9 9 9 9 9 11 12 16 21 9 12 17 20 17 11 13 18 22 16 14 18 32 28 21 19 27 22 22 22 22 24 26 25 21 20 19 12 10
14 15 14 12 12 13 12 10 9 10 10 10 12 10 13 15 23 15 8 7 12 18 15 13 19 23 12 15 26 24 18 18 18 21 24 16 22 16 12 8 11 6 6 6 6
15 15 15 15 14 15 14 14 10 10 10 10 9 12 13 12 23 23 23 15 8 10 18 13 16 18 12 10 14 15 18 25 21 24 20 19 19 17 22 9 14 14 10 7 4
19 16 16 15 14 15 15 12 10 13 12 7 10 7 19 13 14 16 18 21 21 11 14 20 12 11 13 11 15 21 25 19 23 20 17 20 22 18 19 15 14 13 15 10 8
19 17 15 15 15 17 15 11 7 5 22 13 10 17 4 18 7 9 16 15 18 21 17 27 12 18 27 25 23 22 20 22 21 19 17 17 21 20 22 21 19 14 13 13 11
17 16 15 14 14 18 17 16 14 4 7 31 23 19 16 6 7 14 16 17 21 20 20 18 19 26 28 22 22 23 22 22 14 15 11 14 17 19 17 20 22 16 17 16 14
16 14 14 14 14 20 24 24 27 20 6 9 35 31 26 12 12 15 22 25 20 21 21 24 22 27 28 24 22 26 24 19 16 13 11 13 18 21 19 26 12 15 17 18 18
14 13 13 13 14 17 20 18 25 19 4 6 8 10 22 13 10 27 25 21 17 22 22 18 26 19 27 27 24 19 17 16 15 8 8 9 7 12 14 13 12 14 19 20 19
14 12 14 18 7 9 10 6 10 7 6 10 9 7 14 15 5 20 31 24 20 20 5 11 9 22 26 25 27 12 22 16 12 8 4 12 6 14 11 15 13 14 20 21 21
16 12 14 17 20 12 13 7 11 2 7 7 7 12 9 21 16 3 29 23 19 19 15 19 16 21 22 23 21 9 19 13 7 3 7 13 13 11 12 14 16 15 20 22 22
18 15 19 17 12 18 13 19 2 6 3 5 4 7 12 10 18 10 17 19 11 6 11 9 14 18 14 14 19 13 17 6 5 4 6 5 11 13 10 6 7 16 22 24 23
18 14 21 20 15 11 24 2 9 4 5 3 4 8 7 11 15 20 9 16 21 9 4 9 9 14 17 7 10 12 17 8 7 9 12 7 7 4 8 4 10 18 23 24 23
15 16 26 22 21 20 15 5 5 4 6 7 8 6 7 15 6 15 16 17 18 19 5 8 8 12 13 10 14 7 10 2 3 7 8 8 10 7 5 6 8 18 24 26 25
15 18 25 21 26 27 6 9 5 5 4 7 12 13 13 15 9 13 11 15 17 17 14 4 2 6 3 12 6 8 8 7 3 7 5 8 6 6 10 8 10 14 24 25 24
14 5 6 18 27 12 6 7 7 9 11 9 16 12 14 11 15 11 9 7 22 20 15 2 2 3 5 5 13 6 3 5 3 2 3 6 4 11 5 2 8 13 24 26 25
9 3 10 23 5 3 5 5 5 7 20 11 13 11 14 17 13 16 12 16 21 13 10 11 6 3 5 6 13 10 9 13 6 5 5 4 5 5 4 2 5 14 22 25 24
6 6 15 33 4 5 4 7 7 2 6 9 11 13 12 13 10 12 10 16 14 19 8 9 2 3 6 7 3 5 11 16 13 6 11 7 5 4 5 6 7 13 21 23 23
5 4 5 15 12 5 6 7 7 15 15 16 9 14 14 13 15 16 8 10 14 21 20 7 8 7 6 7 12 9 15 16 15 10 11 11 4 10 6 6 9 14 19 22 23
10 6 8 5 7 13 8 5 5 6 12 21 7 18 16 13 16 7 15 12 13 20 15 5 9 4 3 3 16 17 19 20 19 18 12 12 15 10 6 8 9 17 21 22 23
7 5 7 4 16 14 14 8 13 12 13 7 12 19 18 10 13 10 14 11 9 15 17 12 4 2 3 2 6 13 18 20 22 23 21 19 16 6 2 4 10 16 21 22 21
16 9 2 6 7 7 4 11 12 12 9 7 9 9 15 13 14 4 17 13 3 15 18 7 4 3 3 5 5 9 19 19 19 21 20 21 18 15 6 8 11 13 17 18 18
Wind_Direction
288 291 291 290 283 269 255 248 247 242 243 242 242 243 247 248 255 261 252 239 229 266 251 277 255 228 226 231 224 227 244 242 245 243 256 201 258 268 286 275 278 273 276 332 352
283 287 290 288 289 280 264 253 247 250 247 246 247 244 244 245 251 244 257 254 259 261 259 260 263 224 221 223 219 220 227 241 248 255 254 273 258 287 288 279 272 272 257 248 307
278 283 288 281 284 283 273 259 247 243 247 248 247 245 243 244 264 263 262 254 250 243 242 242 251 269 226 227 219 222 238 242 248 252 263 273 275 277 276 273 271 275 295 295 297
276 285 292 277 277 282 281 273 258 243 242 249 244 240 240 219 250 291 243 242 227 226 229 229 231 234 238 228 230 227 238 241 255 241 243 260 272 279 269 270 281 278 280 286 287
267 274 282 270 269 274 278 279 265 242 233 245 244 232 212 222 231 230 64 70 228 213 215 217 219 221 233 228 231 238 237 239 244 253 250 263 266 269 272 275 276 275 276 274 275
261 264 265 266 274 278 273 266 264 256 244 241 242 233 219 245 245 238 247 261 294 209 218 223 228 224 245 236 226 231 240 244 234 243 247 255 266 266 266 276 276 280 276 270 261
260 255 258 261 272 275 273 269 259 259 249 241 238 236 232 232 245 234 237 238 242 250 236 228 227 227 231 251 243 233 245 236 243 239 254 258 265 259 266 263 277 278 264 257 255
265 254 255 259 267 275 272 262 258 247 242 240 234 227 244 252 236 239 211 221 239 237 236 239 228 240 260 270 273 227 242 243 235 229 239 231 258 258 262 229 251 290 260 229 238
265 262 248 257 262 274 277 262 260 252 232 235 234 226 253 241 233 230 230 233 236 243 230 238 232 222 244 238 242 224 226 221 240 232 228 210 255 250 248 227 261 265 231 222 207
262 265 251 248 257 267 275 264 249 239 216 201 223 222 243 232 233 225 221 225 230 245 220 212 213 211 219 222 212 209 217 217 222 229 209 235 239 250 260 248 261 261 238 210 197
256 261 249 241 250 262 269 265 228 196 192 191 202 208 333 212 205 219 209 210 215 226 221 207 214 217 213 225 234 227 207 217 223 214 230 239 247 246 239 249 256 248 222 203 185
254 256 246 240 245 258 257 227 219 216 226 226 238 236 248 216 221 220 194 198 202 217 218 220 225 224 221 233 229 248 221 210 208 194 204 245 246 249 242 246 250 235 219 198 176
264 252 241 236 244 251 253 245 241 230 257 223 229 230 222 218 234 220 194 206 204 219 219 223 225 228 222 220 225 232 222 216 213 183 226 261 265 254 248 244 240 225 210 192 181
264 250 236 224 248 264 251 250 245 248 261 201 214 226 216 195 239 226 208 208 221 224 215 241 240 263 212 221 233 213 222 201 190 194 219 212 273 201 204 195 196 197 192 181 174
254 242 231 223 228 239 246 245 220 189 265 128 154 189 195 186 179 206 209 213 226 212 150 212 202 240 216 210 204 221 201 185 189 194 311 219 248 260 204 197 192 198 186 178 172
251 235 220 222 231 244 251 202 159 200 248 164 141 179 190 198 237 207 198 210 228 249 238 240 229 227 210 210 224 269 164 157 180 166 230 233 220 260 192 210 195 180 180 173 171
248 241 221 215 229 228 232 156 183 233 108 178 177 195 204 188 219 189 197 203 206 180 233 205 246 259 181 215 203 210 145 150 163 195 221 156 208 241 110 112 165 174 174 174 170
240 246 228 220 217 212 182 147 223 238 186 123 156 170 193 188 215 210 217 226 215 209 223 185 205 204 196 229 199 192 177 172 161 185 196 141 221 215 98 82 161 176 173 172 172
233 246 227 216 205 213 161 226 232 200 165 176 157 181 206 199 219 196 218 238 213 193 257 173 235 189 184 188 166 198 210 71 116 35 163 169 229 155 182 155 176 177 173 174 176
222 233 221 234 212 193 188 226 237 180 162 170 193 203 195 195 190 186 205 214 211 211 206 267 275 317 155 135 43 218 186 182 232 153 188 161 199 116 172 157 175 187 177 178 178
224 206 211 203 196 177 215 215 228 207 179 188 216 206 215 179 201 207 219 231 193 200 190 194 246 296 206 181 150 162 212 221 280 344 228 165 149 93 95 134 176 189 181 180 178
196 212 216 175 172 185 220 201 220 244 204 213 264 224 227 188 193 206 224 217 194 178 210 205 197 175 84 76 173 164 208 221 208 166 265 330 107 143 83 119 183 174 181 179 179
200 182 194 173 196 202 235 225 256 263 182 205 217 222 213 195 198 201 244 195 203 190 211 193 206 117 108 72 40 194 224 206 238 286 223 222 120 130 105 114 151 161 174 174 179
196 189 170 207 236 198 201 222 232 229 234 222 236 210 200 195 230 192 243 186 204 202 212 265 260 234 175 180 146 190 208 210 215 227 230 230 159 159 144 132 147 157 172 177 181
196 216 183 192 225 227 187 220 235 214 217 205 266 201 193 202 207 236 202 159 189 212 224 259 272 230 222 90 171 185 197 212 222 234 234 233 228 236 207 170 172 166 173 179 184
188 220 175 277 219 216 217 204 240 252 187 216 228 205 194 213 196 203 188 185 185 203 214 227 298 319 223 252 227 209 210 214 221 229 235 246 247 263 28 142 169 180 181 186 190
214 239 270 276 222 213 212 217 232 205 194 193 225 232 204 222 193 233 192 201 217 189 194 209 253 220 172 182 201 248 230 218 224 232 235 236 239 239 184 185 198 193 187 193 194
Height
1490 1488 1487 1486 1486 1484 1484 1485 1486 1488 1489 1490 1491 1493 1494 1494 1495 1495 1496 1498 1497 1495 1496 1498 1500 1502 1504 1505 1505 1505 1502 1496 1492 1491 1489 1487 1491 1489 1492 1490 1488 1486 1486 1486 1486
1488 1487 1485 1484 1484 1483 1482 1482 1483 1485 1487 1488 1489 1490 1492 1493 1494 1492 1492 1492 1493 1493 1495 1497 1497 1499 1499 1499 1500 1499 1495 1490 1485 1484 1486 1486 1490 1489 1491 1486 1483 1482 1483 1485 1485
1486 1485 1484 1482 1482 1483 1481 1480 1480 1481 1484 1485 1487 1488 1491 1493 1494 1487 1488 1488 1490 1490 1493 1495 1496 1496 1494 1495 1493 1492 1489 1486 1484 1485 1490 1489 1489 1488 1487 1485 1482 1480 1481 1483 1484
1484 1483 1482 1481 1481 1481 1480 1479 1478 1478 1481 1483 1484 1486 1489 1492 1491 1483 1482 1481 1482 1486 1490 1492 1494 1495 1492 1489 1489 1487 1486 1486 1484 1485 1489 1489 1488 1485 1484 1482 1482 1482 1482 1481 1481
1482 1481 1480 1480 1480 1480 1479 1478 1477 1476 1479 1481 1483 1484 1487 1488 1484 1483 1482 1481 1483 1484 1487 1490 1491 1492 1490 1485 1489 1484 1482 1482 1484 1484 1484 1486 1484 1482 1481 1480 1478 1477 1476 1476 1477
1479 1479 1479 1478 1479 1479 1479 1477 1476 1475 1476 1479 1482 1483 1484 1483 1482 1483 1483 1483 1484 1485 1486 1489 1489 1488 1487 1485 1481 1482 1480 1480 1479 1481 1482 1482 1479 1479 1476 1476 1472 1471 1471 1471 1473
1475 1476 1477 1477 1477 1477 1477 1475 1474 1474 1474 1477 1479 1480 1481 1478 1478 1479 1480 1480 1482 1484 1485 1487 1489 1487 1485 1483 1479 1479 1477 1475 1475 1476 1476 1477 1473 1469 1471 1470 1468 1467 1466 1467 1470
1472 1472 1473 1474 1475 1475 1475 1474 1473 1472 1472 1474 1477 1479 1474 1473 1475 1476 1477 1477 1478 1481 1484 1485 1488 1487 1488 1484 1477 1475 1478 1480 1470 1470 1471 1475 1467 1461 1461 1464 1465 1463 1463 1467 1468
1468 1468 1469 1470 1472 1473 1472 1472 1471 1470 1470 1472 1476 1478 1472 1467 1467 1470 1474 1475 1477 1479 1481 1484 1484 1486 1488 1486 1482 1470 1471 1469 1470 1461 1463 1465 1462 1458 1460 1462 1461 1460 1460 1465 1466
1464 1464 1465 1466 1468 1470 1470 1469 1468 1468 1469 1472 1475 1480 1468 1463 1463 1464 1468 1472 1475 1478 1479 1480 1482 1479 1481 1481 1468 1463 1465 1458 1464 1453 1458 1460 1459 1458 1456 1455 1456 1456 1456 1462 1464
1460 1460 1461 1462 1464 1466 1468 1466 1469 1467 1463 1459 1460 1457 1458 1459 1461 1461 1464 1469 1472 1474 1472 1471 1476 1469 1466 1470 1462 1452 1451 1452 1446 1444 1450 1454 1454 1449 1450 1451 1451 1452 1453 1458 1462
1456 1456 1457 1458 1461 1463 1464 1461 1459 1459 1457 1456 1457 1457 1458 1458 1458 1458 1462 1466 1467 1463 1468 1469 1466 1460 1460 1463 1464 1459 1448 1440 1440 1443 1453 1451 1448 1443 1442 1445 1444 1446 1450 1455 1461
1452 1452 1454 1455 1457 1458 1457 1456 1456 1457 1454 1450 1448 1450 1454 1457 1452 1452 1457 1457 1456 1458 1458 1460 1451 1457 1454 1463 1460 1449 1445 1435 1442 1444 1450 1451 1448 1440 1437 1438 1439 1443 1445 1452 1458
1448 1449 1450 1453 1456 1453 1452 1452 1452 1455 1452 1439 1439 1438 1448 1450 1448 1449 1450 1453 1450 1449 1454 1457 1449 1459 1448 1456 1458 1454 1435 1434 1440 1447 1455 1445 1445 1418 1418 1433 1438 1439 1442 1450 1456
1443 1445 1446 1447 1450 1450 1450 1449 1450 1455 1436 1430 1435 1437 1439 1443 1437 1436 1443 1448 1443 1444 1456 1446 1444 1455 1442 1448 1446 1446 1433 1435 1442 1446 1457 1450 1451 1424 1414 1423 1428 1434 1440 1448 1454
1439 1440 1442 1444 1445 1448 1447 1448 1451 1454 1427 1428 1432 1434 1435 1438 1435 1433 1436 1442 1443 1444 1446 1440 1438 1439 1433 1441 1442 1435 1427 1436 1442 1448 1457 1439 1438 1420 1414 1416 1416 1430 1439 1447 1453
1434 1435 1435 1439 1441 1442 1445 1448 1449 1433 1425 1426 1427 1429 1431 1432 1433 1432 1434 1436 1440 1447 1442 1437 1438 1437 1428 1430 1438 1436 1435 1453 1460 1465 1443 1421 1428 1415 1414 1417 1418 1428 1437 1445 1452
1428 1430 1429 1432 1438 1439 1441 1445 1432 1412 1418 1424 1425 1428 1428 1426 1424 1425 1431 1433 1434 1438 1433 1429 1433 1436 1423 1427 1424 1429 1424 1423 1434 1436 1428 1431 1435 1413 1413 1418 1420 1428 1436 1444 1450
1423 1424 1423 1426 1432 1433 1438 1434 1415 1410 1418 1420 1423 1424 1424 1420 1418 1424 1426 1425 1423 1430 1429 1422 1422 1413 1414 1423 1422 1429 1421 1409 1411 1407 1410 1420 1414 1414 1414 1419 1423 1425 1433 1440 1446
1417 1418 1417 1421 1426 1428 1430 1420 1415 1413 1416 1418 1415 1408 1411 1415 1419 1423 1420 1408 1414 1422 1432 1428 1421 1417 1415 1415 1423 1418 1412 1421 1411 1426 1425 1410 1409 1406 1414 1414 1420 1424 1430 1438 1444
1413 1413 1413 1415 1420 1423 1418 1414 1411 1411 1414 1415 1408 1399 1397 1409 1412 1412 1402 1396 1407 1415 1427 1427 1433 1424 1417 1410 1416 1426 1422 1415 1403 1406 1409 1407 1407 1397 1408 1412 1416 1420 1427 1434 1440
1408 1411 1408 1410 1417 1415 1411 1411 1409 1406 1408 1409 1405 1390 1391 1395 1404 1401 1397 1395 1400 1409 1421 1420 1415 1418 1412 1407 1407 1412 1421 1411 1412 1421 1411 1411 1412 1406 1410 1413 1415 1418 1424 1432 1439
1403 1404 1405 1406 1406 1405 1407 1406 1406 1403 1403 1404 1391 1389 1387 1392 1397 1403 1397 1390 1400 1403 1406 1404 1397 1407 1416 1417 1419 1419 1413 1409 1408 1404 1409 1415 1409 1405 1409 1413 1416 1418 1423 1430 1437
1399 1398 1403 1403 1399 1398 1401 1399 1399 1396 1396 1395 1389 1386 1384 1388 1388 1394 1400 1391 1394 1398 1403 1404 1393 1385 1390 1387 1406 1418 1414 1408 1412 1414 1409 1404 1402 1407 1409 1412 1416 1419 1424 1430 1435
1392 1388 1390 1394 1393 1392 1393 1392 1387 1386 1392 1391 1386 1381 1383 1385 1387 1386 1393 1392 1399 1398 1400 1401 1389 1381 1380 1381 1391 1399 1404 1409 1410 1406 1407 1401 1404 1398 1399 1407 1413 1417 1422 1428 1433
1386 1384 1386 1384 1383 1386 1387 1384 1386 1384 1378 1383 1387 1375 1378 1376 1380 1384 1384 1388 1391 1397 1400 1401 1394 1387 1391 1391 1390 1394 1396 1398 1402 1401 1401 1399 1396 1393 1398 1404 1410 1415 1419 1424 1429
1381 1382 1383 1375 1372 1377 1375 1375 1374 1377 1375 1378 1379 1374 1373 1373 1375 1376 1381 1383 1384 1388 1396 1402 1398 1393 1391 1395 1398 1402 1389 1391 1395 1394 1396 1398 1395 1394 1403 1405 1410 1413 1418 1422 1427